Home > Weather > Leawood > Past weeks

Flag for USA Weather for the Past 2 Weeks in Leawood, Kansas, USA

Now
65 °F

Passing clouds.


Feels Like: 65 °F
Forecast: 44 / 68 °F
Wind: 7 mph from West

Location: Johnson County Executive Airport

Current Time: May 3, 2016 at 5:18:15 PM

Latest Report: May 3, 2016 at 3:53 PM


Visibility: 10 mi

Pressure: 30.00 "Hg

Humidity: 37%

Dew Point: 38 °F

Location of LeawoodLocation

Historic Weather in Leawood — Graph

°F

Leawood Temperature Yesterday

Maximum temperature yesterday: 54 °F (at 3:53 PM)
Minimum temperature yesterday: 47 °F (at 3:53 AM)
Average temperature yesterday: 50 °F

High & Low Weather Summary for the Past Weeks

 TemperatureHumidityPressure
High76 °F (Apr 23, 3:53 PM)100% (Apr 27, 3:53 AM)30.19 "Hg (Apr 27, 3:53 AM)
Low44 °F (Apr 28, 4:53 AM)36% (Apr 23, 4:53 PM)29.44 "Hg (Apr 27, 4:53 AM)
Average59 °F76%29.89 "Hg
* Reported Apr 18 3:55 PM — May 3 3:53 PM, Leawood, Weather by CustomWeather, © 2016

Note: Actual official high and low records may vary slightly from our data, if they occured in-between our weather recording intervals... More about our weather records

Advertising

Leawood Weather History for the Previous 24 Hours

Scroll right to see more
 ConditionsComfort  
Time TempWeatherWind HumidityBarometerVisibility
3:53 PM
Tue, May 3
65 °FPassing clouds.7 mph37%30.00 "Hg10 mi
2:53 PM66 °FPassing clouds.6 mph37%30.02 "Hg10 mi
1:53 PM63 °FScattered clouds.6 mph40%30.03 "Hg10 mi
12:53 PM63 °FPartly sunny.9 mph43%30.06 "Hg10 mi
11:53 AM63 °FScattered clouds.No wind41%30.07 "Hg10 mi
10:53 AM60 °FSunny.5 mph52%30.08 "Hg10 mi
9:53 AM58 °FSunny.7 mph62%30.09 "Hg10 mi
8:53 AM55 °FSunny.5 mph67%30.09 "Hg10 mi
7:53 AM49 °FCool.5 mph86%30.08 "Hg10 mi
6:53 AM45 °FCool.3 mph93%30.07 "Hg10 mi
5:53 AM45 °FClear.3 mph93%30.06 "Hg10 mi
4:53 AM46 °FClear.5 mph86%30.07 "Hg10 mi
3:53 AM46 °FClear.5 mph86%30.06 "Hg10 mi
2:53 AM45 °FClear.5 mph90%30.06 "Hg10 mi
1:53 AM45 °FClear.No wind90%30.06 "Hg10 mi
12:53 AM47 °FClear.5 mph86%30.07 "Hg10 mi
11:53 PM
Mon, May 2
47 °FClear.5 mph90%30.07 "Hg10 mi
10:53 PM47 °FClear.5 mph90%30.08 "Hg10 mi
9:53 PM48 °FClear.No wind83%30.08 "Hg10 mi
8:53 PM49 °FSunny.No wind84%30.07 "Hg10 mi
7:53 PM53 °FScattered clouds.3 mph72%30.07 "Hg10 mi
6:53 PM53 °FMostly cloudy.3 mph74%30.08 "Hg10 mi
5:53 PM54 °FMostly cloudy.5 mph72%30.08 "Hg10 mi
Weather by CustomWeather, © 2016

See weather overviewHow to use our weather pages